Terminal Aerodrome Forecast
Issued by NWS Bismarck, ND

Home | Current Version | Previous Version | Text Only | Print | Product List | Glossary Off
Versions: 1 2 3 4 5 6 7 8 9 10 11 12 13 14 15 16 17 18

000
FTUS43 KBIS 240525
TAFISN
TAF
KISN 240525Z 2406/2506 17010KT P6SM SCT200 WS020/18040KT
     FM241400 16021G30KT P6SM SCT200
     FM242100 21019G26KT P6SM VCSH BKN090
     FM250000 23015KT P6SM -SHRA OVC070=

USA.gov is the U.S. government's official web portal to all federal, state and local government web resources and services.